IW2GOB-3 Weather Reports


time (UTC)temp
F
wind
direction
speed
knots
gust
knots
rain 1hr
in
rain 24hr
in
rain mn
in
humidity
%
barometer
mb
20260504130521 73 282 5.2 7.0 0.00 0.00 0.00 35 1015.9
20260504110521 72 269 4.3 6.1 0.00 0.00 0.00 35 1016.5
20260504100521 71 355 2.6 4.3 0.00 0.00 0.00 34 1016.8
20260504081521 67 335 0.9 2.6 0.00 0.00 0.00 40 1017.0
20260504080521 67 310 4.3 5.2 0.00 0.00 0.00 40 1017.0
20260504050521 59 266 0.0 0.0 0.00 0.00 0.00 56 1015.9
20260504045520 58 266 0.0 0.9 0.00 0.00 0.00 56 1015.8
20260504044520 58 266 0.9 1.7 0.00 0.00 0.00 56 1015.8
20260504043520 58 229 1.7 2.6 0.00 0.00 0.00 56 1015.8
20260504042520 59 241 2.6 2.6 0.00 0.00 0.00 55 1015.7
20260504041520 59 227 0.9 1.7 0.00 0.00 0.00 53 1015.6
20260504040520 60 250 0.9 1.7 0.00 0.00 0.00 51 1015.4
20260504035520 60 250 0.9 1.7 0.00 0.00 0.00 51 1015.4
20260504034520 60 253 0.0 0.9 0.00 0.00 0.00 51 1015.4
20260504033520 60 265 1.7 2.6 0.00 0.00 0.00 51 1015.5
20260504032520 59 259 1.7 2.6 0.00 0.00 0.00 52 1015.5
20260504031520 59 261 0.9 1.7 0.00 0.00 0.00 53 1015.5
20260504030520 59 245 0.0 0.9 0.00 0.00 0.00 53 1015.5
20260504025520 60 245 0.9 1.7 0.00 0.00 0.00 52 1015.6
20260504024520 60 245 0.9 0.9 0.00 0.00 0.00 51 1015.6
20260504023520 61 245 0.0 0.9 0.00 0.00 0.00 50 1015.6
20260504022520 61 245 0.0 0.9 0.00 0.00 0.00 49 1015.6
20260504021520 61 245 0.9 0.9 0.00 0.00 0.00 49 1015.6
20260504020520 62 245 0.0 0.9 0.00 0.00 0.00 48 1015.6
20260504015520 63 245 0.0 0.9 0.00 0.00 0.00 47 1015.6
20260504014520 63 245 0.9 0.9 0.00 0.00 0.00 45 1015.6
20260504013520 63 269 0.9 0.9 0.00 0.00 0.00 43 1015.5
20260504012520 64 250 0.0 1.7 0.00 0.00 0.00 43 1015.5
20260504011520 64 290 0.0 0.9 0.00 0.00 0.00 43 1015.6
20260504010520 64 311 0.9 1.7 0.00 0.00 0.00 42 1015.6
20260504005520 64 321 0.9 0.9 0.00 0.00 0.00 43 1015.6
20260504004520 64 315 0.9 1.7 0.00 0.00 0.00 43 1015.7
20260504003520 64 311 0.9 1.7 0.00 0.00 0.00 43 1015.7
20260504002520 64 311 0.9 1.7 0.00 0.00 0.00 43 1015.8
20260504001520 64 294 0.9 0.9 0.00 0.00 0.00 43 1015.9
20260504000520 64 303 0.9 2.6 0.00 0.00 0.00 43 1016.1
20260503235520 64 276 0.9 1.7 0.00 0.00 0.00 43 1016.2
20260503234520 64 267 0.9 1.7 0.00 0.00 0.00 43 1016.2
20260503233520 64 305 0.0 1.7 0.00 0.00 0.00 44 1016.3
20260503232520 64 275 1.7 2.6 0.00 0.00 0.00 44 1016.3
20260503231520 65 292 0.9 4.3 0.00 0.00 0.00 44 1016.4
20260503230520 65 260 1.7 2.6 0.00 0.00 0.00 44 1016.4
20260503225520 65 261 2.6 4.3 0.00 0.00 0.00 43 1016.4
20260503224520 65 261 1.7 2.6 0.00 0.00 0.00 43 1016.5
20260503223520 65 259 1.7 2.6 0.00 0.00 0.00 43 1016.4
20260503222520 65 263 1.7 2.6 0.00 0.00 0.00 43 1016.4
20260503221520 66 256 1.7 2.6 0.00 0.00 0.00 42 1016.5
20260503220520 66 273 0.0 0.9 0.00 0.00 0.00 42 1016.4
20260503215520 66 248 1.7 2.6 0.00 0.00 0.00 41 1016.3
20260503214520 66 275 2.6 2.6 0.00 0.00 0.00 41 1016.2
20260503213520 67 289 1.7 2.6 0.00 0.00 0.00 40 1016.2
20260503212520 67 282 0.9 5.2 0.00 0.00 0.00 40 1016.2
20260503211520 67 309 2.6 5.2 0.00 0.00 0.00 40 1016.1
20260503210520 67 287 2.6 6.1 0.00 0.00 0.00 40 1016.1
20260503205520 67 270 1.7 2.6 0.00 0.00 0.00 40 1016.0
20260503204520 67 301 1.7 4.3 0.00 0.00 0.00 39 1016.0
20260503203520 68 303 1.7 6.1 0.00 0.00 0.00 39 1015.9
20260503202520 68 276 1.7 4.3 0.00 0.00 0.00 39 1016.0
20260503201520 68 300 1.7 4.3 0.00 0.00 0.00 40 1015.9
20260503200520 68 273 1.7 2.6 0.00 0.00 0.00 39 1015.9
20260503195520 68 264 2.6 5.2 0.00 0.00 0.00 39 1015.7
20260503194520 69 261 2.6 4.3 0.00 0.00 0.00 39 1015.6
20260503193520 69 262 2.6 5.2 0.00 0.00 0.00 38 1015.5
20260503192520 69 263 4.3 4.3 0.00 0.00 0.00 38 1015.4
20260503191520 70 268 2.6 4.3 0.00 0.00 0.00 38 1015.3
20260503190520 70 263 1.7 2.6 0.00 0.00 0.00 38 1015.2
20260503185520 70 279 2.6 7.0 0.00 0.00 0.00 37 1015.2
20260503184520 71 259 2.6 4.3 0.00 0.00 0.00 36 1015.1
20260503183520 71 267 2.6 4.3 0.00 0.00 0.00 35 1015.0
20260503182520 72 260 4.3 5.2 0.00 0.00 0.00 35 1015.0
20260503181520 72 258 2.6 5.2 0.00 0.00 0.00 34 1015.0
20260503180520 73 254 4.3 6.1 0.00 0.00 0.00 34 1015.0
20260503175520 74 248 1.7 2.6 0.00 0.00 0.00 35 1015.0
20260503174520 74 262 1.7 2.6 0.00 0.00 0.00 34 1014.8
20260503173520 74 265 2.6 2.6 0.00 0.00 0.00 33 1014.8
20260503172520 74 261 1.7 2.6 0.00 0.00 0.00 33 1014.8
20260503171520 75 277 1.7 2.6 0.00 0.00 0.00 32 1014.9
20260503170520 75 277 0.9 2.6 0.00 0.00 0.00 32 1015.0
20260503150519 76 270 1.7 4.3 0.00 0.00 0.00 32 1015.5